This is the latest recevied weather packets stored in our database for station/object W0JRT-6. If no packets are shown the sender has not sent any weather packets the latest 10 day(s).
| Time | Temp. | Humidity | Pressure | Rain* | Wind** | Luminosity | Snow |
|---|---|---|---|---|---|---|---|
| 1777632007 | 1.67° C | 96% | 1020.1 hPa | 0 mm | - | - | - |
| 1777630809 | 1.67° C | 96% | 1020.3 hPa | 0 mm | - | - | - |
| 1777630197 | 1.67° C | 96% | 1020 hPa | 0 mm | - | - | - |
| 1777629609 | 2.22° C | 96% | 1020 hPa | 0 mm | - | - | - |
| 1777629011 | 2.22° C | 96% | 1020 hPa | 0 mm | - | - | - |
| 1777628411 | 2.22° C | 96% | 1020 hPa | 0 mm | - | - | - |
| 1777627807 | 2.22° C | 95% | 1020 hPa | 0 mm | - | - | - |
| 1777627210 | 2.22° C | 95% | 1019.8 hPa | 0 mm | - | - | - |
| 1777626611 | 2.22° C | 95% | 1019.8 hPa | 0 mm | - | - | - |
| 1777626007 | 2.78° C | 95% | 1019.7 hPa | 0 mm | - | - | - |
| 1777625408 | 2.78° C | 95% | 1019.7 hPa | 0 mm | - | - | - |
| 1777624808 | 2.78° C | 95% | 1019.6 hPa | 0 mm | - | - | - |
| 1777623608 | 3.33° C | 94% | 1019.7 hPa | 0 mm | - | - | - |
| 1777623009 | 3.33° C | 95% | 1019.8 hPa | 0 mm | - | - | - |
| 1777622408 | 3.33° C | 93% | 1019.7 hPa | 0 mm | - | - | - |
| 1777621812 | 3.33° C | 93% | 1019.7 hPa | 0 mm | - | - | - |
| 1777621208 | 3.89° C | 92% | 1019.7 hPa | 0 mm | - | - | - |
| 1777620610 | 3.89° C | 92% | 1019.7 hPa | 0 mm | - | - | - |
| 1777620008 | 4.44° C | 92% | 1019.7 hPa | 0 mm | - | - | - |
| 1777619409 | 4.44° C | 92% | 1019.7 hPa | 0 mm | - | - | - |
| 1777618204 | 5° C | 89% | 1019.6 hPa | 0 mm | - | - | - |
| 1777616402 | 5.56° C | 85% | 1019.2 hPa | 0 mm | - | - | - |
| 1777615804 | 6.11° C | 85% | 1019.1 hPa | 0 mm | - | - | - |
| 1777614612 | 6.67° C | 81% | 1018.9 hPa | 0 mm | - | - | - |
| 1777613398 | 8.33° C | 74% | 1018.5 hPa | 0 mm | - | - | - |
* Rain since midnight (hover to see other rain measurements)
** Current wind speed in m/s (hover to see current wind gust speed)